Alma, MI

6:58 AM EDT on September 22, 2019 (GMT -0400)
Gratiot Community

Weather History for KAMN - May, 2019

Change the Weather History Date:

Sunday, May 5, 2019

  Actual Average Record
Temperature  
Mean Temperature 56 °F -  
Max Temperature 73 °F 66 °F 90 °F (1952)
Min Temperature 40 °F 40 °F 28 °F (1979)
Degree Days  
Heating Degree Days 8    
Growing Degree Days 6 (Base 50)    
Moisture  
Dew Point 41 °F    
Average Humidity 60    
Maximum Humidity 96    
Minimum Humidity 24    
Precipitation  
Precipitation 0.00 in - - ()
Sea Level Pressure  
Sea Level Pressure 29.87 in    
Wind  
Wind Speed 2 mph (SW)    
Max Wind Speed 10 mph    
Max Gust Speed 16 mph    
Visibility 9 miles    
Events Fog    
Averages and records for this station are not official NWS values.
T = Trace of Precipitation, MM = Missing Value Source: NWS Daily Summary

Daily Weather History Graph

Daily Weather History Graph

Search for Another Location

Airport or City:

Astronomy

May. 05, 2019 Rise Set
Actual Time 6:26 AM EDT 8:44 PM EDT
Civil Twilight 5:55 AM EDT 9:16 PM EDT
Nautical Twilight 5:15 AM EDT 9:56 PM EDT
Astronomical Twilight 4:32 AM EDT 10:39 PM EDT
Moon 7:12 AM EDT (5/5) 9:37 PM EDT (5/5)
Length of Visible Light 15h 21m
Length of Day
14h 18m
New Moon, 1% of the Moon is Illuminated
May 5
New Moon
May 11
First Quarter
May 18
Full
May 26
Last Quarter
Jun 3
New

Hourly Weather History & Observations

Time (EDT) Temp. Dew Point Humidity Pressure Visibility Wind Dir Wind Speed Gust Speed Precip Events Conditions
12:15 AM 50.0 °F 45.3 °F 84% 29.91 in 10.0 mi Calm Calm - N/A   Clear
12:35 AM 48.6 °F 45.5 °F 89% 29.91 in 10.0 mi ENE 3.5 mph - N/A   Clear
12:36 AM 48.6 °F 45.3 °F 89% 29.91 in 10.0 mi East 3.5 mph - N/A   Clear
12:55 AM 47.5 °F 44.8 °F 90% 29.91 in 10.0 mi Calm Calm - N/A   Clear
1:15 AM 46.2 °F 43.5 °F 90% 29.91 in 7.0 mi Calm Calm - N/A   Clear
1:35 AM 46.4 °F 44.4 °F 93% 29.91 in 10.0 mi Calm Calm - N/A   Clear
1:55 AM 47.5 °F 45.1 °F 92% 29.90 in 10.0 mi Calm Calm - N/A   Clear
1:56 AM 47.5 °F 45.3 °F 92% 29.90 in 10.0 mi Calm Calm - N/A   Clear
2:15 AM 47.5 °F 45.0 °F 91% 29.90 in 10.0 mi Calm Calm - N/A   Clear
2:16 AM 47.5 °F 45.0 °F 91% 29.90 in 10.0 mi Calm Calm - N/A   Clear
2:35 AM 45.5 °F 43.0 °F 91% 29.89 in 10.0 mi Calm Calm - N/A   Clear
2:36 AM 45.3 °F 42.6 °F 90% 29.89 in 10.0 mi Calm Calm - N/A   Clear
2:55 AM 43.0 °F 41.0 °F 93% 29.89 in 7.0 mi Calm Calm - N/A   Clear
2:56 AM 43.2 °F 41.4 °F 93% 29.89 in 7.0 mi Calm Calm - N/A   Clear
3:15 AM 44.2 °F 42.3 °F 93% 29.89 in - Calm Calm - N/A   Unknown
3:35 AM 44.6 °F 42.4 °F 92% 29.89 in 5.0 mi Calm Calm - N/A   Clear
3:36 AM 44.6 °F 42.4 °F 92% 29.89 in 5.0 mi Calm Calm - N/A   Clear
3:55 AM 42.6 °F 40.5 °F 92% 29.89 in 5.0 mi Calm Calm - N/A   Clear
4:15 AM 44.6 °F 43.0 °F 94% 29.89 in 7.0 mi Calm Calm - N/A   Clear
4:35 AM 42.6 °F 40.8 °F 93% 29.90 in 5.0 mi Calm Calm - N/A   Clear
4:55 AM 43.2 °F 41.5 °F 94% 29.90 in 7.0 mi Calm Calm - N/A   Clear
5:15 AM 42.3 °F 40.6 °F 94% 29.90 in 10.0 mi Calm Calm - N/A   Clear
5:16 AM 42.1 °F 40.6 °F 95% 29.90 in 10.0 mi Calm Calm - N/A   Clear
5:35 AM 42.8 °F 41.4 °F 95% 29.90 in 5.0 mi Calm Calm - N/A   Clear
5:36 AM 42.6 °F 41.2 °F 95% 29.90 in 4.0 mi Calm Calm - N/A   Clear
5:55 AM 42.1 °F 40.5 °F 94% 29.90 in 3.0 mi Calm Calm - N/A   Clear
5:56 AM 41.7 °F 40.1 °F 94% 29.90 in 3.0 mi Calm Calm - N/A   Clear
6:15 AM 40.8 °F 39.6 °F 95% 29.89 in 0.2 mi Calm Calm - N/A Fog Fog
6:35 AM 40.6 °F 39.4 °F 95% 29.90 in 0.2 mi Calm Calm - N/A Fog Fog
6:55 AM 41.0 °F 39.9 °F 96% 29.90 in 0.2 mi Calm Calm - N/A Fog Fog
7:15 AM 41.5 °F 40.3 °F 95% 29.90 in 2.5 mi Calm Calm - N/A   Scattered Clouds
7:35 AM 44.4 °F 43.2 °F 95% 29.91 in 4.0 mi Calm Calm - N/A   Clear
7:55 AM 46.8 °F 45.5 °F 95% 29.91 in 10.0 mi Calm Calm - N/A   Clear
7:56 AM 46.8 °F 45.5 °F 95% 29.91 in 10.0 mi Calm Calm - N/A   Clear
8:15 AM 48.2 °F 46.4 °F 93% 29.91 in 10.0 mi Calm Calm - N/A   Clear
8:16 AM 48.2 °F 46.4 °F 93% 29.91 in 10.0 mi Calm Calm - N/A   Clear
8:35 AM 49.5 °F 46.9 °F 91% 29.91 in 10.0 mi Calm Calm - N/A   Clear
8:36 AM 49.5 °F 46.9 °F 91% 29.91 in 10.0 mi Calm Calm - N/A   Clear
8:55 AM 51.4 °F 47.3 °F 86% 29.91 in 10.0 mi Calm Calm - N/A   Clear
8:56 AM 51.4 °F 47.5 °F 86% 29.91 in 10.0 mi Calm Calm - N/A   Clear
9:15 AM 54.7 °F 46.4 °F 74% 29.91 in 10.0 mi Calm Calm - N/A   Clear
9:35 AM 55.9 °F 45.5 °F 68% 29.91 in 10.0 mi Calm Calm - N/A   Clear
9:55 AM 58.3 °F 46.6 °F 65% 29.90 in 10.0 mi Calm Calm - N/A   Clear
10:15 AM 59.2 °F 46.4 °F 63% 29.90 in 10.0 mi Calm Calm - N/A   Clear
10:35 AM 61.0 °F 45.0 °F 56% 29.89 in 10.0 mi Calm Calm - N/A   Clear
10:55 AM 62.6 °F 45.5 °F 54% 29.89 in 10.0 mi SSW 5.8 mph - N/A   Clear
10:56 AM 62.6 °F 45.3 °F 53% 29.89 in 10.0 mi SSW 4.6 mph - N/A   Clear
11:15 AM 64.4 °F 43.9 °F 47% 29.88 in 10.0 mi SW 4.6 mph - N/A   Clear
11:35 AM 65.5 °F 41.5 °F 42% 29.88 in 10.0 mi SSW 4.6 mph - N/A   Clear
11:36 AM 65.5 °F 41.2 °F 41% 29.88 in 10.0 mi SSW 4.6 mph - N/A   Clear
11:55 AM 66.7 °F 41.9 °F 40% 29.88 in 10.0 mi SW 5.8 mph - N/A   Clear
11:56 AM 66.7 °F 41.9 °F 40% 29.88 in 10.0 mi WSW 5.8 mph - N/A   Clear
12:15 PM 67.8 °F 41.7 °F 39% 29.88 in 10.0 mi SW 3.5 mph - N/A   Clear
12:16 PM 67.6 °F 41.5 °F 39% 29.88 in 10.0 mi SW 5.8 mph - N/A   Clear
12:35 PM 68.4 °F 40.3 °F 36% 29.88 in 10.0 mi West 8.1 mph - N/A   Scattered Clouds
12:36 PM 68.4 °F 40.1 °F 36% 29.87 in 10.0 mi West 6.9 mph - N/A   Scattered Clouds
12:55 PM 66.6 °F 39.0 °F 36% 29.87 in 10.0 mi Calm Calm - N/A   Scattered Clouds
1:15 PM 69.6 °F 38.1 °F 32% 29.87 in 10.0 mi SW 3.5 mph - N/A   Scattered Clouds
1:16 PM 69.6 °F 37.9 °F 31% 29.87 in 10.0 mi SW 3.5 mph - N/A   Scattered Clouds
1:35 PM 70.3 °F 36.9 °F 29% 29.86 in 10.0 mi SW 3.5 mph - N/A   Scattered Clouds
1:55 PM 70.2 °F 37.0 °F 30% 29.86 in 10.0 mi WNW 6.9 mph - N/A   Scattered Clouds
2:15 PM 70.9 °F 36.7 °F 29% 29.86 in 10.0 mi SW 6.9 mph - N/A   Scattered Clouds
2:35 PM 71.8 °F 35.2 °F 26% 29.85 in 10.0 mi WSW 5.8 mph - N/A   Scattered Clouds
2:55 PM 72.0 °F 34.3 °F 25% 29.84 in 10.0 mi WSW 9.2 mph - N/A   Clear
2:56 PM 72.1 °F 34.9 °F 26% 29.84 in 10.0 mi WSW 10.4 mph - N/A   Clear
3:15 PM 71.4 °F 34.9 °F 26% 29.84 in 10.0 mi WSW 6.9 mph - N/A   Scattered Clouds
3:16 PM 71.4 °F 34.7 °F 26% 29.84 in 10.0 mi WSW 9.2 mph - N/A   Scattered Clouds
3:35 PM 71.4 °F 32.7 °F 24% 29.84 in 10.0 mi WSW 4.6 mph - N/A   Mostly Cloudy
3:36 PM 71.6 °F 33.6 °F 25% 29.84 in 10.0 mi West 6.9 mph - N/A   Mostly Cloudy
3:55 PM 71.4 °F 36.1 °F 28% 29.83 in 10.0 mi WSW 8.1 mph - N/A   Scattered Clouds
3:56 PM 71.2 °F 36.1 °F 28% 29.83 in 10.0 mi SW 8.1 mph - N/A   Scattered Clouds
4:15 PM 73.8 °F 35.6 °F 25% 29.83 in 10.0 mi West 8.1 mph - N/A   Mostly Cloudy
4:16 PM 73.6 °F 35.4 °F 25% 29.83 in 10.0 mi West 10.4 mph - N/A   Mostly Cloudy
4:35 PM 71.2 °F 35.1 °F 27% 29.83 in 10.0 mi SSW 6.9 mph - N/A   Mostly Cloudy
4:36 PM 71.6 °F 35.1 °F 26% 29.83 in 10.0 mi SSW 9.2 mph - N/A   Mostly Cloudy
4:55 PM 72.5 °F 36.0 °F 26% 29.82 in 10.0 mi SW 4.6 mph - N/A   Scattered Clouds
5:15 PM 73.2 °F 37.6 °F 27% 29.82 in 10.0 mi West 10.4 mph - N/A   Scattered Clouds
5:35 PM 73.0 °F 36.5 °F 26% 29.82 in 10.0 mi WSW 9.2 mph - N/A   Scattered Clouds
5:55 PM 72.7 °F 36.1 °F 26% 29.82 in 10.0 mi WSW 5.8 mph - N/A   Scattered Clouds
6:15 PM 72.5 °F 35.2 °F 26% 29.82 in 10.0 mi WSW 10.4 mph - N/A   Scattered Clouds
6:16 PM 72.5 °F 35.6 °F 26% 29.82 in 10.0 mi WSW 8.1 mph - N/A   Scattered Clouds
6:35 PM 72.1 °F 36.5 °F 27% 29.82 in 10.0 mi SW 6.9 mph - N/A   Clear
6:36 PM 72.1 °F 36.9 °F 28% 29.82 in 10.0 mi WSW 5.8 mph - N/A   Clear
6:55 PM 71.6 °F 39.0 °F 31% 29.82 in 10.0 mi WSW 9.2 mph - N/A   Clear
6:56 PM 71.6 °F 38.8 °F 30% 29.82 in 10.0 mi WSW 8.1 mph - N/A   Clear
7:15 PM 70.2 °F 40.3 °F 34% 29.82 in 10.0 mi SW 8.1 mph - N/A   Clear
7:16 PM 70.2 °F 39.9 °F 33% 29.82 in 10.0 mi SW 9.2 mph - N/A   Clear
7:35 PM 69.4 °F 41.7 °F 37% 29.82 in 10.0 mi SW 9.2 mph 16.1 mph N/A   Clear
7:55 PM 68.9 °F 41.4 °F 37% 29.83 in 10.0 mi WSW 5.8 mph - N/A   Clear
8:15 PM 67.5 °F 42.1 °F 40% 29.83 in 10.0 mi WSW 8.1 mph - N/A   Clear
8:35 PM 66.0 °F 41.7 °F 41% 29.84 in 10.0 mi SW 4.6 mph - N/A   Clear
8:55 PM 64.6 °F 42.1 °F 44% 29.85 in 10.0 mi WSW 4.6 mph - N/A   Clear
9:15 PM 63.1 °F 42.8 °F 47% 29.86 in 10.0 mi WSW 4.6 mph - N/A   Clear
9:35 PM 63.0 °F 42.6 °F 47% 29.87 in 10.0 mi SW 5.8 mph - N/A   Clear
9:55 PM 61.7 °F 42.3 °F 49% 29.88 in 10.0 mi SW 3.5 mph - N/A   Clear
9:56 PM 61.7 °F 42.3 °F 49% 29.88 in 10.0 mi SW 3.5 mph - N/A   Clear
10:15 PM 61.7 °F 42.3 °F 49% 29.88 in 10.0 mi SW 3.5 mph - N/A   Clear
10:16 PM 61.9 °F 42.3 °F 49% 29.88 in 10.0 mi SW 3.5 mph - N/A   Clear
10:35 PM 59.4 °F 43.0 °F 55% 29.88 in 10.0 mi Calm Calm - N/A   Clear
10:36 PM 59.4 °F 43.0 °F 55% 29.88 in 10.0 mi Calm Calm - N/A   Clear
10:55 PM 57.9 °F 45.3 °F 63% 29.89 in 10.0 mi SW 4.6 mph - N/A   Clear
10:56 PM 58.1 °F 45.1 °F 62% 29.89 in 10.0 mi SW 4.6 mph - N/A   Clear
11:15 PM 55.8 °F 45.3 °F 68% 29.89 in 10.0 mi Calm Calm - N/A   Clear
11:35 PM 53.8 °F 46.4 °F 76% 29.88 in 10.0 mi SSW 3.5 mph - N/A   Clear
11:36 PM 53.8 °F 46.4 °F 76% 29.88 in 10.0 mi SSW 3.5 mph - N/A   Clear
11:55 PM 53.4 °F 46.4 °F 77% 29.88 in 10.0 mi SSW 4.6 mph - N/A   Clear